Cloud_Cover
0 0 0 0 0 0 0 0 0 0 0 0 0 0 0 0 0 0 0 0 3 5 9 15 8 5 3 0 0 0 0 0 0 0 0 0 1 0 0 0 7 1 0
0 0 19 0 0 0 0 0 0 0 0 0 0 0 0 0 0 0 31 72 96 92 5 2 1 2 3 0 0 0 0 0 0 0 0 0 0 0 0 0 34 0 0
0 0 1 0 0 0 0 0 0 0 0 0 0 0 0 3 4 5 38 0 0 0 1 0 0 0 0 0 0 4 0 0 0 2 3 48 0 0 0 0 0 0 0
0 0 0 3 0 0 0 0 0 0 0 0 0 0 0 2 16 6 6 31 10 5 0 0 0 0 0 2 3 96 7 3 11 5 8 95 44 20 3 2 6 2 0
0 0 0 0 0 0 0 0 0 0 0 0 0 0 0 4 4 6 0 0 0 2 1 0 0 0 0 0 5 98 90 51 5 5 53 41 100 6 5 5 5 0 2
0 0 40 0 0 0 0 0 0 0 0 0 0 0 96 8 4 0 0 0 0 0 4 0 0 0 0 0 0 1 96 100 95 8 67 81 71 82 99 100 84 3 0
0 0 2 0 0 0 0 0 0 0 0 0 0 0 0 0 0 1 20 89 5 0 0 0 0 0 0 0 1 2 5 89 100 100 100 100 100 100 100 100 100 99 33
0 5 5 14 0 0 0 0 0 0 0 0 0 0 0 1 2 25 5 0 0 0 0 0 0 0 0 0 0 0 0 21 46 100 100 100 100 100 100 100 12 3 12
4 5 0 0 0 26 0 0 0 0 0 0 0 0 0 3 40 10 0 0 0 0 0 0 0 0 0 1 4 4 0 0 2 60 100 100 100 59 18 5 10 5 99
5 5 4 5 0 0 0 7 0 0 0 0 0 0 0 8 0 0 2 0 0 0 0 0 0 0 0 0 1 5 5 10 4 4 57 98 45 10 41 6 26 5 5
5 9 75 36 9 7 4 7 42 3 0 4 0 2 67 0 1 21 5 0 0 0 0 0 0 0 0 0 0 5 23 93 99 78 93 95 56 27 55 11 6 71 13
5 7 14 5 6 8 17 37 10 3 0 0 0 5 5 14 54 65 52 5 5 5 4 4 2 0 0 2 5 9 16 21 68 53 99 100 100 100 100 100 100 64 5
0 15 36 2 22 8 2 64 32 85 31 43 59 19 33 83 9 95 85 22 10 5 21 5 5 2 4 3 0 4 4 5 5 5 5 78 100 100 100 100 100 100 99
100 100 42 1 18 21 11 87 75 77 33 62 32 96 73 51 55 31 39 73 64 93 29 60 83 100 34 8 5 5 6 74 25 73 39 5 5 5 5 5 6 44 44
85 100 100 2 13 10 20 58 98 98 90 25 10 5 5 21 21 69 98 51 90 97 97 94 83 51 82 98 80 18 32 28 36 14 6 5 5 5 5 5 22 6 20
87 100 100 4 11 10 16 38 84 52 100 100 100 51 22 7 26 24 97 40 34 100 100 66 96 82 80 100 94 100 74 45 15 5 61 55 60 38 7 3 58 90 58
84 45 76 33 17 17 16 25 38 90 100 100 95 100 63 51 80 39 74 84 72 83 100 86 98 93 86 99 100 91 98 100 100 100 100 99 20 17 6 48 74 88 92
81 46 93 19 12 38 25 15 9 94 100 74 61 100 64 99 71 38 48 99 100 31 68 53 85 100 100 100 100 100 87 98 95 100 100 100 98 100 90 6 72 70 72
95 100 100 48 10 40 46 44 48 100 100 70 100 100 100 87 88 100 97 98 63 29 50 80 100 100 93 96 100 94 86 99 94 97 99 84 76 80 69 100 89 17 9
66 100 100 45 65 85 100 100 100 100 100 100 100 100 100 100 100 100 100 100 93 68 69 99 97 100 91 89 100 100 100 99 82 84 50 57 40 16 10 82 100 97 63
100 100 100 94 94 100 100 100 100 100 90 98 100 100 100 100 100 100 100 100 100 100 100 100 100 82 50 27 84 66 100 100 100 100 100 100 100 92 100 100 100 100 85
100 78 98 20 97 100 100 100 100 59 87 100 100 100 100 100 100 100 100 100 100 100 100 90 99 89 100 100 100 100 100 100 99 100 100 100 100 100 100 100 100 100 100
100 100 100 71 100 100 100 100 99 100 100 100 100 100 100 100 100 100 100 100 100 100 100 100 100 100 100 100 100 84 92 100 100 100 100 100 100 100 100 100 100 100 100
100 100 99 100 100 100 100 100 100 100 100 99 100 100 100 100 100 100 100 100 87 99 100 100 100 100 100 100 100 74 70 95 100 100 100 100 100 100 100 78 15 3 69
100 100 98 97 100 100 100 95 100 100 100 100 100 100 100 100 100 100 100 100 100 100 100 100 100 100 100 100 100 100 100 100 100 100 100 100 100 100 100 11 98 56 2
100 100 99 74 98 94 100 100 100 97 97 100 100 100 100 100 100 100 100 100 100 100 100 100 100 100 100 100 100 100 100 100 100 100 76 98 83 65 5 1 5 2 0